Wind_Speed
8 9 10 11 12 12 14 15 16 17 18 18 18 19 19 19 19 18 16 15 14 14 10 6 4 4 4 4 3 5 6 6 4 5 5 3 5 5 6 7 7 8 9 8 8 3 1 4 6 7 5 4 4 2 2 2 3 4 3 3 1 3 4 5 8 7 5 5 6 6 6 7 6 3 3 2 6 3 3 4 3 4 5 3 7 18 26 22
8 8 9 10 11 12 13 14 15 17 17 18 18 18 19 19 18 18 16 15 13 13 12 9 5 5 6 6 5 5 7 7 4 3 5 4 5 6 6 7 7 8 9 8 8 6 3 4 6 6 5 3 2 1 2 2 3 4 3 3 2 5 4 4 7 6 3 5 7 5 5 6 7 7 5 3 2 2 4 1 3 4 4 5 12 19 21 21
8 8 9 10 10 11 12 13 15 16 17 18 18 19 19 19 19 18 16 15 13 12 12 11 7 5 6 8 6 5 8 6 2 1 2 4 4 5 7 8 8 8 9 7 7 6 4 2 2 4 4 3 2 2 3 3 2 2 4 3 4 5 3 3 6 7 4 4 8 5 3 2 3 7 5 5 5 5 7 6 3 5 6 6 9 15 18 19
8 9 9 10 11 11 12 14 15 15 17 18 18 19 19 19 19 18 17 16 14 11 10 10 9 6 4 7 6 5 7 4 1 2 1 3 3 5 7 8 8 8 8 7 7 6 4 3 4 4 4 2 4 3 3 3 1 2 4 2 5 3 1 3 6 6 2 2 6 4 3 2 3 4 4 8 7 5 8 10 9 11 14 12 8 12 17 17
9 10 10 11 12 13 13 14 15 16 17 17 18 19 20 20 20 20 18 17 16 12 9 9 8 6 4 4 5 6 5 3 2 2 1 2 3 5 6 8 9 8 8 7 7 6 5 5 6 5 4 3 5 4 2 2 1 1 1 3 5 2 1 2 4 3 3 4 4 5 4 4 4 2 5 10 8 6 6 8 8 9 15 16 13 14 15 15
9 10 11 12 13 14 14 15 16 16 17 17 18 19 20 20 20 21 20 19 17 13 8 7 7 5 3 1 3 2 2 1 2 1 1 2 2 5 6 7 9 8 7 6 7 7 6 7 6 4 3 3 3 3 1 4 2 1 2 0 3 3 1 1 2 3 5 6 5 6 4 4 6 2 4 9 9 5 4 6 7 8 13 16 15 14 12 11
10 10 11 12 13 14 15 15 16 17 17 18 18 19 20 20 21 22 21 21 19 13 7 6 6 3 1 1 0 2 3 3 3 1 2 2 3 4 5 6 7 8 5 6 9 6 6 8 6 4 4 3 0 1 0 4 4 4 1 1 2 3 3 2 1 2 4 6 6 4 3 5 8 4 2 8 8 3 4 4 10 13 15 15 13 11 10 11
10 11 12 12 13 14 15 16 16 17 18 18 18 19 20 21 21 22 22 22 20 12 7 5 4 2 2 1 1 2 2 4 2 1 2 2 3 3 3 4 5 5 5 9 8 4 4 6 3 3 3 1 2 1 2 3 5 4 1 1 1 2 4 2 2 1 2 3 2 4 4 4 7 3 2 8 7 1 1 6 11 13 14 12 10 10 10 11
11 11 12 13 14 15 15 16 17 18 18 19 19 19 20 21 21 22 22 22 19 11 7 5 3 2 4 2 4 2 4 4 3 1 2 2 3 2 3 3 5 4 7 9 7 5 3 2 2 3 3 2 3 1 2 2 1 1 3 2 1 2 4 1 2 2 2 1 3 6 3 4 3 1 3 7 5 3 5 8 9 11 11 10 9 9 10 10
12 12 12 13 14 15 16 17 18 18 19 20 20 20 20 21 22 23 22 22 18 10 7 5 3 2 5 3 6 1 4 3 2 1 1 1 1 0 3 4 5 5 6 6 6 7 4 4 3 3 5 3 3 1 1 2 2 3 4 4 2 2 4 1 5 3 1 1 3 6 2 3 2 1 4 4 5 6 8 8 8 10 11 11 9 9 11 11
13 13 14 14 15 16 16 18 19 19 20 21 21 21 21 21 22 23 23 22 16 9 7 5 3 3 4 4 5 3 4 3 2 0 0 1 1 2 4 5 4 5 6 6 6 6 5 6 6 4 1 1 2 2 1 2 3 2 2 3 3 3 3 0 3 3 0 2 4 5 1 2 1 2 6 5 7 8 10 10 9 10 10 10 9 8 9 11
14 14 15 15 16 16 17 18 19 20 21 22 22 22 22 22 23 23 24 21 13 8 7 5 3 5 3 3 3 6 5 5 3 1 0 0 2 3 5 4 5 5 4 5 5 4 6 6 6 4 1 1 1 2 1 2 3 1 2 1 6 6 4 1 2 2 2 3 5 5 2 4 5 7 5 5 9 7 9 10 9 9 8 8 9 7 7 11
15 15 15 16 16 17 18 19 20 21 22 22 23 23 23 23 24 24 24 19 10 7 6 4 3 6 3 1 4 6 6 6 3 2 1 1 2 3 5 4 4 6 5 7 6 5 6 4 6 5 2 4 1 1 2 3 2 1 3 2 4 7 5 1 0 2 4 3 4 4 4 5 10 11 4 6 10 9 9 10 9 9 8 7 8 7 7 11
17 16 16 16 16 17 18 20 21 22 23 23 24 23 23 24 25 24 22 15 7 6 5 3 3 5 2 3 4 4 8 7 4 2 1 1 2 3 4 4 4 6 7 9 7 6 5 3 7 6 2 3 1 1 4 6 3 1 2 2 3 3 3 5 1 5 5 2 3 4 4 7 9 9 5 8 10 12 12 11 10 9 8 8 8 8 8 10
19 19 18 16 16 17 18 19 21 22 23 24 24 24 24 25 26 24 17 9 4 4 4 1 5 4 1 4 3 3 7 6 4 3 1 1 1 2 2 3 4 7 8 7 7 6 5 4 6 5 1 2 3 3 4 5 4 3 2 3 3 0 5 8 3 5 5 0 2 4 4 9 9 7 6 9 9 12 12 11 12 11 11 10 9 9 8 9
20 20 19 18 17 17 17 18 20 22 23 24 25 24 23 25 26 19 10 4 3 3 1 2 6 4 1 3 2 2 5 4 4 4 2 0 2 2 3 4 4 6 6 6 6 4 5 5 4 2 1 2 4 4 4 4 4 4 1 3 4 2 4 7 3 1 2 1 1 4 4 7 7 3 4 8 9 10 10 10 12 12 12 11 9 9 8 8
21 20 20 19 18 18 17 18 19 20 22 23 24 24 23 24 20 11 3 0 0 1 2 2 5 3 1 2 1 2 3 4 4 4 3 1 2 3 4 4 4 4 4 4 3 2 4 4 1 1 2 3 3 4 4 4 4 4 3 1 4 3 3 5 4 2 1 3 4 5 6 10 10 2 5 9 10 11 11 11 13 13 12 11 9 9 9 10
22 22 21 20 19 18 17 18 18 19 21 22 22 24 23 19 11 3 0 2 3 3 3 1 3 2 3 2 1 2 1 3 3 3 2 2 2 2 3 4 3 4 5 4 2 2 2 3 2 1 4 4 3 5 2 4 3 3 3 2 3 3 4 5 6 2 2 1 5 5 6 14 16 7 7 10 10 13 14 13 13 13 12 10 10 10 10 11
23 22 21 21 20 18 17 17 18 18 21 21 20 19 15 10 4 1 1 2 2 1 1 2 2 2 3 3 2 1 2 2 3 2 2 3 2 3 5 5 4 4 3 1 2 2 1 2 3 1 1 2 2 5 7 8 7 6 5 4 4 5 6 6 6 4 1 3 7 8 9 12 17 12 7 9 11 13 14 12 10 10 10 10 10 11 11 13
23 23 22 21 20 17 15 16 16 16 18 19 19 15 7 4 4 3 3 1 4 3 2 5 4 3 3 3 1 2 2 1 2 2 3 3 3 3 3 4 5 4 2 3 2 2 3 1 3 5 6 7 7 7 6 5 6 5 4 4 5 5 7 6 4 5 1 1 9 10 9 12 16 17 10 8 11 13 13 12 12 11 11 12 13 13 14 14
22 22 22 21 19 17 14 14 14 14 14 15 15 8 1 2 1 3 5 5 6 2 3 6 4 4 5 2 2 3 2 0 1 1 4 4 3 3 1 2 3 0 2 3 1 2 4 2 7 8 9 7 5 6 6 5 5 3 3 3 5 5 7 8 3 5 2 3 7 7 7 12 14 16 11 7 10 14 15 16 16 15 13 12 14 16 16 12
21 22 22 21 19 16 13 12 12 12 11 10 8 4 4 3 2 1 1 5 8 2 2 4 1 4 5 3 3 2 2 1 4 3 6 4 3 3 3 3 4 4 2 2 1 4 2 5 10 8 6 5 5 5 7 5 4 3 2 1 4 4 5 8 3 5 2 3 6 7 8 13 13 16 16 10 12 14 14 18 18 16 15 14 15 16 15 12
19 21 21 20 19 16 12 10 11 10 8 5 4 5 4 3 4 2 2 2 7 4 1 2 2 4 3 3 5 5 3 4 4 4 7 7 2 3 4 4 4 3 1 4 5 2 2 7 8 5 7 8 5 3 7 4 2 3 3 2 5 4 1 5 4 4 3 2 5 8 11 13 10 14 16 10 11 12 11 15 15 13 15 16 16 16 16 17
19 19 18 20 21 16 10 10 9 6 4 3 3 4 4 4 5 2 1 1 5 5 3 3 3 4 3 2 6 8 2 4 3 3 6 8 4 3 4 5 4 2 3 6 7 5 7 6 2 5 6 7 5 3 6 4 3 3 5 6 6 6 5 6 4 5 5 3 3 7 10 10 5 8 11 4 4 9 9 10 12 12 13 13 13 14 16 17
17 16 16 21 22 16 10 9 6 1 2 1 3 4 5 5 4 2 2 1 4 6 3 3 1 4 5 4 6 7 2 2 4 3 4 6 5 3 1 2 3 4 5 5 6 5 8 5 5 6 3 4 6 4 5 7 3 4 5 9 9 8 7 5 4 5 4 4 3 6 6 8 1 3 8 5 3 8 6 9 12 12 11 11 13 15 14 14
15 14 17 22 22 15 8 5 3 1 2 1 3 3 4 4 4 3 2 3 3 5 2 2 1 4 6 4 3 4 3 3 3 1 2 3 4 3 2 1 0 3 6 6 4 3 3 0 4 6 5 5 6 5 6 7 5 3 4 7 7 5 3 2 3 3 1 3 3 3 1 8 3 3 7 9 6 9 8 9 12 11 10 12 14 14 13 13
14 14 15 18 18 13 5 3 3 2 1 2 3 3 3 4 4 3 2 3 4 4 3 1 0 4 5 2 1 5 3 3 1 2 1 2 1 2 2 4 1 2 4 4 1 3 3 3 4 4 6 5 5 5 6 9 7 4 4 5 6 5 4 3 2 0 3 3 3 2 4 7 8 5 7 7 7 12 13 12 12 10 12 14 15 15 13 14
17 14 11 12 12 9 6 5 5 2 1 3 3 3 3 4 3 2 3 2 5 1 2 1 0 2 1 1 3 4 2 2 2 1 1 2 1 3 1 6 6 4 3 5 5 4 3 5 5 6 5 4 6 5 8 11 5 5 5 6 6 6 5 4 4 2 2 3 5 4 5 4 9 5 3 4 4 10 14 14 13 11 13 15 15 15 14 14
15 11 8 9 9 8 8 7 4 1 1 3 3 2 4 5 2 3 3 3 4 1 1 1 2 1 2 2 1 2 1 2 1 3 3 2 0 3 2 5 6 4 1 3 5 4 1 4 7 8 5 6 5 2 5 9 4 3 6 6 5 5 4 4 3 2 2 2 8 7 8 4 8 5 3 1 3 9 11 11 11 9 10 13 14 13 13 12
11 7 7 9 8 7 7 6 5 2 1 2 3 4 5 4 2 2 3 5 3 1 1 1 2 2 4 4 2 2 0 1 0 2 3 1 3 6 1 3 6 4 1 4 3 4 2 1 2 4 4 5 4 3 1 3 3 5 6 5 5 5 4 4 2 3 3 5 9 7 13 8 6 4 6 4 5 8 8 8 8 8 8 10 11 11 12 12
12 10 9 10 9 6 5 4 2 2 2 3 4 5 4 2 3 4 7 6 3 2 1 1 1 3 6 5 3 1 2 2 1 2 1 1 2 5 1 2 4 3 3 4 4 4 4 1 2 2 2 5 6 5 3 3 4 5 4 4 3 4 3 4 4 4 0 6 6 3 8 9 8 7 5 6 8 7 8 7 8 10 9 8 9 9 11 12
13 13 12 14 14 11 8 4 1 1 3 5 5 4 4 0 2 4 5 3 3 3 4 3 2 3 5 3 2 3 3 2 2 4 4 3 3 3 3 5 4 1 3 5 4 5 3 4 3 1 2 4 6 4 3 4 4 4 4 4 2 3 4 3 3 1 3 7 3 1 3 5 11 11 8 10 12 10 10 9 10 12 11 8 8 9 9 9
15 13 13 16 17 15 13 9 3 1 3 7 4 4 6 3 6 5 5 3 3 2 2 2 1 3 5 2 2 3 2 2 3 3 2 3 3 5 5 5 5 2 2 4 1 3 4 4 1 2 3 3 8 6 2 2 2 5 5 4 4 2 1 3 4 2 5 6 2 3 3 3 9 8 12 18 17 15 12 9 10 11 11 9 7 8 8 8
16 11 13 16 18 18 14 11 7 3 3 5 4 5 3 7 6 5 8 7 3 2 2 3 3 2 3 2 4 4 3 4 4 5 2 2 2 5 6 6 5 2 2 2 1 2 4 7 3 6 2 4 9 6 4 5 4 4 5 5 5 5 4 4 4 4 7 6 3 2 2 4 5 4 8 14 14 14 11 7 7 9 8 7 6 6 8 9
15 11 14 18 19 19 14 12 11 6 4 3 5 4 8 9 3 4 7 6 2 1 2 2 4 4 2 3 3 3 4 4 2 5 4 4 4 5 5 6 7 5 4 3 2 2 4 8 5 2 0 5 6 2 4 7 3 2 3 4 3 5 5 3 3 4 1 5 4 3 4 6 4 4 6 6 8 11 9 6 8 11 8 4 6 7 8 8
14 13 14 16 18 19 15 13 12 8 5 4 5 7 11 8 5 5 5 4 4 4 3 2 3 3 4 3 3 3 2 2 2 3 4 4 4 5 4 4 9 11 8 6 3 2 2 6 3 2 2 2 3 1 1 2 3 2 3 4 5 4 5 2 2 1 4 3 6 2 6 9 5 5 7 6 8 11 8 7 11 12 7 4 7 9 8 8
15 15 12 11 13 16 15 14 12 8 3 4 7 10 8 5 6 6 5 4 4 6 6 3 3 5 5 3 4 5 3 1 2 3 3 3 3 6 6 4 7 15 16 9 3 3 3 4 2 2 1 1 0 1 1 1 3 5 3 5 3 2 4 3 1 3 3 3 6 3 8 14 9 7 2 4 7 12 10 11 13 10 6 6 10 10 9 8
14 11 11 15 18 15 13 14 14 7 2 3 11 13 5 5 7 6 6 5 3 4 6 6 6 6 7 5 4 5 6 4 4 4 3 3 4 5 8 5 6 14 17 9 3 3 3 3 4 2 2 2 2 1 0 2 2 4 4 3 3 3 2 2 2 3 2 3 6 8 10 14 11 8 4 4 9 11 10 11 12 10 9 9 11 11 8 7
12 4 5 13 23 22 17 15 13 6 2 6 13 11 4 4 5 4 8 7 4 5 6 8 7 4 5 6 4 5 7 6 7 5 4 4 5 4 7 6 6 8 9 8 6 3 3 3 5 1 2 1 2 2 5 3 1 2 1 2 2 2 4 3 3 3 3 3 6 8 10 14 10 7 6 9 11 10 10 10 11 12 11 11 11 10 8 8
9 2 3 6 18 26 23 16 9 5 5 9 10 7 2 2 5 7 10 8 4 3 5 6 6 4 4 5 4 4 6 6 6 5 5 5 4 5 7 7 5 4 1 3 3 1 3 3 5 1 2 1 3 5 8 9 7 4 3 2 2 1 2 1 2 2 4 4 4 3 8 17 8 7 8 10 9 11 11 10 11 10 10 11 11 10 9 9
6 3 3 7 20 29 25 12 5 6 6 8 8 5 1 2 5 7 8 7 5 2 2 5 7 6 6 5 4 4 5 4 6 6 5 5 5 5 8 9 8 8 4 4 1 3 3 3 5 3 2 4 5 2 2 5 6 7 7 7 7 5 4 1 5 3 3 4 5 4 8 19 8 6 6 7 7 10 10 11 12 8 9 11 11 11 10 10
5 5 3 11 28 32 20 6 5 5 5 7 6 4 2 1 2 4 6 5 4 3 0 3 7 8 6 4 4 5 6 4 6 7 5 6 9 8 7 8 11 11 8 4 3 3 4 3 3 5 6 5 3 1 1 2 2 3 5 4 6 6 6 6 8 5 2 2 2 4 5 19 10 6 6 7 7 9 9 10 10 7 8 11 10 10 10 9
5 5 4 17 36 31 13 5 5 4 6 4 3 3 2 1 2 4 5 6 5 4 3 4 5 7 6 4 4 5 7 6 7 7 5 6 10 10 8 11 12 10 7 3 2 1 2 2 4 7 5 2 3 2 1 3 3 2 5 4 6 7 8 8 6 3 2 3 3 4 5 19 10 5 5 5 3 5 6 7 7 7 7 8 9 10 9 9
6 4 3 18 37 28 11 7 8 8 9 6 6 7 4 2 4 5 6 8 7 5 7 7 4 4 6 5 6 7 8 7 7 7 7 8 7 6 9 15 13 10 7 5 5 5 4 3 3 5 6 5 4 2 2 2 1 4 5 5 8 11 9 3 1 1 3 6 9 5 11 19 9 3 4 0 2 6 7 6 7 7 7 7 8 8 8 8
4 3 1 13 27 20 7 5 5 8 12 13 12 12 8 5 5 7 9 10 7 3 4 6 3 4 5 4 4 7 7 8 8 6 8 8 4 2 7 14 15 12 7 3 5 7 6 5 5 7 9 10 10 6 3 3 3 3 4 6 11 15 13 7 3 4 7 8 11 10 18 19 15 12 6 2 5 9 9 8 7 7 8 7 7 7 7 8
4 3 2 6 10 9 6 4 2 3 8 11 9 9 12 12 7 5 8 9 7 4 2 3 3 4 5 5 6 9 10 11 9 6 6 6 3 3 3 9 12 10 4 4 8 8 3 3 8 13 14 14 15 11 5 6 5 5 9 13 15 16 15 12 7 7 10 8 8 17 23 17 22 29 20 12 13 14 14 12 8 7 9 8 8 8 8 8
4 5 6 6 4 6 8 7 5 3 3 7 7 6 12 16 9 4 6 7 7 8 6 4 4 5 7 10 10 10 12 11 10 12 12 6 2 4 1 2 7 5 1 2 7 6 2 6 14 18 18 18 19 15 7 9 7 10 12 16 17 15 15 13 12 16 16 9 11 21 22 18 26 33 26 21 19 18 19 18 10 8 10 9 8 7 7 8
5 4 6 8 6 7 11 13 14 11 7 7 7 4 6 11 11 8 5 2 4 9 8 5 9 16 17 14 11 9 9 9 12 17 15 8 4 3 1 0 3 2 1 1 3 3 3 10 15 15 17 20 22 17 9 9 10 9 11 17 16 14 16 17 21 27 21 12 16 24 23 23 28 28 25 23 21 18 19 18 9 7 8 7 7 8 9 10
5 2 4 7 8 9 13 17 19 16 14 11 8 8 10 15 17 11 5 2 3 9 12 12 16 21 20 14 10 8 9 12 15 15 12 10 10 6 3 3 2 1 2 3 4 2 3 8 13 14 15 18 22 18 9 9 11 10 13 20 15 12 17 22 27 28 20 16 24 29 26 27 28 26 24 23 20 16 16 16 12 9 9 8 9 10 11 11
8 4 6 7 8 10 10 11 13 13 14 13 10 13 16 19 20 12 6 8 9 7 11 19 21 16 14 15 14 15 19 21 20 15 9 9 10 5 4 6 2 2 2 6 3 3 5 8 10 9 10 16 21 16 10 12 14 13 19 26 18 12 18 26 26 19 13 18 27 27 24 26 27 25 21 19 19 17 17 19 18 15 12 9 10 12 12 12
14 5 6 5 6 10 8 7 10 10 11 11 12 16 17 19 23 17 8 11 15 11 11 19 22 14 9 12 17 23 28 24 20 17 9 6 7 6 4 6 7 4 5 5 2 3 6 5 2 2 6 15 16 9 8 9 6 10 21 30 24 18 20 24 19 14 15 20 22 19 18 23 24 19 16 17 19 18 20 22 19 14 10 10 12 13 13 13
16 4 5 4 6 8 8 7 9 10 9 11 17 20 19 20 22 17 9 8 15 18 13 14 17 12 7 13 22 26 25 19 16 16 10 4 4 5 4 5 7 8 7 6 3 3 5 4 2 4 8 13 8 3 7 6 1 9 20 25 24 22 22 20 18 18 20 19 15 15 20 24 19 12 14 20 21 18 19 19 15 11 10 11 13 14 13 14
Wind_Direction
31 27 25 22 19 16 14 14 14 14 15 14 15 16 17 17 16 17 16 12 5 3 3 349 294 253 234 226 282 340 357 2 14 54 64 36 6 5 359 3 6 2 4 2 15 36 305 355 2 26 98 91 12 298 8 33 63 54 85 88 139 178 195 184 180 194 169 187 204 202 187 141 156 189 172 82 50 74 76 25 352 6 15 77 120 135 145 152
28 24 21 17 14 12 9 10 10 10 11 11 10 10 11 12 12 12 12 11 5 358 356 353 330 265 240 242 273 326 340 342 352 35 47 27 1 0 359 7 11 6 7 9 20 31 26 345 344 31 72 66 352 319 19 21 66 83 113 78 232 200 201 193 178 189 184 177 182 200 194 172 179 163 156 150 160 168 130 357 353 46 45 94 122 134 145 154
21 18 14 11 8 6 3 3 3 4 6 6 6 6 6 6 7 7 7 7 5 358 350 349 344 304 254 247 259 319 336 342 348 328 16 8 357 354 358 8 13 11 11 15 24 27 27 351 4 53 58 70 355 356 39 11 44 138 111 67 249 216 219 222 182 194 231 180 161 194 195 193 196 147 157 162 161 198 187 191 171 171 177 153 144 142 148 156
11 9 6 4 1 359 357 356 355 356 358 360 1 1 0 1 3 2 1 2 1 355 347 345 341 329 281 249 247 289 333 6 268 230 12 346 343 346 352 8 12 15 15 21 33 25 21 47 71 65 67 67 337 15 52 344 6 127 105 142 238 198 173 223 193 203 234 160 159 161 122 195 210 142 161 142 139 236 231 210 193 185 175 167 172 156 154 159
360 360 358 357 355 353 352 350 349 349 350 352 355 355 355 356 357 358 357 357 356 351 343 342 337 333 316 258 241 275 350 40 248 229 46 316 328 336 344 2 7 14 18 24 35 36 28 41 60 46 54 63 346 28 59 295 72 66 103 180 220 160 84 223 193 189 125 103 110 125 159 190 161 142 174 161 176 225 232 224 206 184 171 166 168 163 161 163
351 351 351 350 350 348 347 345 344 344 344 345 348 349 349 349 351 353 351 351 352 345 334 337 337 327 322 285 238 264 54 51 253 208 302 304 308 321 341 352 3 13 12 24 38 48 38 28 52 51 45 59 2 50 93 292 38 48 315 212 215 190 251 257 179 189 130 121 142 169 195 141 139 228 199 187 216 239 258 231 180 167 170 162 156 160 165 170
342 345 344 344 343 342 342 340 339 339 339 340 342 344 344 343 346 348 347 347 347 340 324 327 336 312 289 67 232 66 81 253 254 197 277 315 283 307 344 347 6 11 7 29 32 56 61 34 57 106 80 68 251 100 63 315 31 77 15 342 174 185 241 298 83 160 138 157 188 178 136 141 183 219 152 208 237 292 288 209 148 148 155 155 154 162 173 176
336 337 337 338 336 336 336 335 335 335 335 336 338 339 340 340 341 343 343 343 344 337 315 316 330 280 226 148 122 22 347 246 219 222 277 292 268 300 338 347 13 13 41 44 36 94 93 47 81 146 80 91 177 75 360 360 29 68 127 278 138 201 255 309 58 113 177 196 160 130 147 210 214 181 156 225 238 346 101 128 131 140 146 158 166 170 176 179
330 329 331 331 329 330 330 331 331 331 332 333 334 335 337 337 336 340 339 340 343 330 308 312 314 263 227 171 87 17 283 213 179 252 282 271 256 306 339 6 25 28 62 54 49 90 91 83 184 180 139 164 149 72 346 36 5 167 161 221 232 286 297 318 185 215 231 242 118 154 193 293 271 175 245 226 191 143 123 123 137 145 153 169 173 176 178 178
325 323 325 324 325 326 326 328 328 329 329 329 331 333 334 334 333 336 335 337 339 321 306 305 295 255 211 163 86 33 251 177 173 256 289 253 221 351 11 29 32 48 74 61 55 69 90 161 173 143 133 134 121 107 333 81 141 167 167 208 203 285 304 212 209 233 232 252 192 185 211 299 304 313 251 220 161 152 130 136 158 157 167 175 176 183 181 185
322 322 321 320 322 323 324 325 326 327 326 326 328 330 331 331 331 332 332 334 333 315 304 305 290 226 195 129 112 208 223 168 190 236 247 206 122 60 43 38 35 67 85 73 68 73 104 150 142 116 117 134 110 32 327 130 125 143 165 241 295 329 321 112 223 247 146 225 187 161 194 276 314 262 235 196 162 161 146 156 174 172 178 179 181 188 187 195
312 316 316 317 318 320 323 323 324 325 323 324 325 327 330 329 329 329 329 331 326 307 298 306 280 210 183 78 163 216 207 183 207 202 232 86 97 74 52 37 39 62 86 95 94 91 107 136 114 95 312 140 122 6 122 131 112 145 75 328 307 355 26 30 250 222 164 208 175 144 282 254 214 235 243 164 157 155 152 167 180 184 188 187 190 194 198 205
300 305 308 312 315 317 320 321 323 323 321 322 322 325 328 327 327 325 326 327 314 297 299 303 258 196 154 332 228 215 205 196 207 221 284 36 100 83 55 46 55 60 76 102 113 106 106 125 103 109 125 100 125 273 101 50 58 221 44 58 320 0 14 296 294 147 153 192 166 144 285 246 219 239 238 150 156 146 162 182 187 192 194 196 198 199 207 210
296 297 301 305 310 313 316 319 320 321 321 321 321 324 326 326 324 322 324 322 298 283 295 296 215 172 150 259 241 216 215 207 211 237 292 16 122 109 56 53 68 69 77 93 106 101 95 110 98 98 91 84 149 50 39 7 22 347 347 47 21 6 296 284 258 151 157 198 123 123 269 257 248 256 201 169 168 160 178 193 192 198 199 201 204 202 210 213
298 297 299 302 305 308 312 316 318 320 320 320 321 322 325 325 321 322 324 312 278 271 291 254 179 150 67 279 262 227 226 216 220 230 215 27 116 127 48 66 90 80 80 87 96 91 87 105 90 77 359 8 46 56 21 345 7 27 338 310 343 18 277 301 278 172 170 317 79 135 248 270 273 270 193 174 178 177 187 196 195 202 203 203 207 204 211 216
301 299 298 299 302 307 309 313 316 318 319 320 322 322 325 323 318 322 322 289 263 268 282 184 181 145 34 276 277 251 230 213 211 213 204 101 79 93 79 97 94 79 87 91 95 91 73 79 69 65 138 44 63 75 36 1 345 2 42 262 285 267 296 317 319 218 199 134 182 203 236 275 277 282 189 177 184 193 197 202 204 207 208 206 207 206 209 213
302 300 298 299 301 305 309 312 316 318 319 321 324 325 325 321 317 324 328 240 254 200 120 155 172 144 286 253 268 286 237 192 190 195 195 143 73 85 99 99 79 75 86 81 91 74 38 52 62 328 51 52 77 83 37 347 308 323 8 261 259 251 277 305 309 330 65 165 220 228 234 258 261 238 179 192 190 198 208 210 209 210 211 208 206 210 210 209
302 300 300 299 298 303 310 314 318 321 321 322 327 327 322 317 316 330 142 123 88 87 92 95 120 116 283 257 227 269 196 163 173 170 177 155 89 83 101 103 94 73 49 32 31 38 7 26 65 13 19 15 47 86 120 243 219 235 261 261 281 275 242 258 274 303 48 240 235 223 238 257 265 251 191 201 196 203 215 213 213 213 210 210 209 212 213 212
304 303 303 300 297 301 308 313 319 323 323 326 331 329 321 319 325 261 181 114 117 115 181 223 151 149 246 271 264 160 104 129 153 164 161 137 114 98 97 90 90 81 58 15 332 23 53 34 57 76 295 264 201 156 191 209 181 188 204 200 237 269 261 234 240 266 8 301 262 237 238 258 269 265 220 203 202 212 223 221 221 218 211 212 215 216 215 217
307 308 306 301 298 299 305 312 317 323 328 332 339 343 340 351 356 323 331 296 207 183 206 222 203 220 260 282 260 145 126 133 160 167 145 149 140 113 87 52 50 57 105 178 255 25 85 146 227 217 222 225 217 193 184 177 148 141 151 192 231 241 271 257 233 287 356 235 266 251 245 257 265 269 249 198 202 220 226 228 229 217 211 213 214 218 217 219
308 310 307 303 302 299 301 308 315 322 330 338 347 357 86 133 349 306 319 297 260 229 259 238 207 254 264 247 215 160 137 22 301 165 156 163 126 135 261 30 82 318 258 182 205 13 68 200 232 225 218 211 201 170 134 126 120 105 165 227 270 230 258 270 258 315 324 179 265 272 263 257 256 267 262 182 195 223 217 221 228 216 213 215 215 220 219 218
307 309 308 306 304 301 299 308 315 320 328 341 2 68 132 143 151 201 333 299 289 278 242 254 211 262 260 230 219 147 102 311 306 272 173 149 95 188 244 70 141 211 289 129 117 358 3 241 240 227 190 110 88 125 116 119 124 101 144 193 282 245 271 291 315 351 347 176 269 287 279 265 255 262 262 211 202 228 217 217 224 214 211 215 216 219 217 214
305 310 313 311 308 302 301 310 314 318 327 345 35 110 130 125 129 129 110 278 290 290 230 237 202 227 254 249 205 154 151 215 259 270 179 148 120 193 164 115 155 178 112 167 171 174 247 254 249 197 142 111 88 107 108 100 124 144 151 167 261 265 289 285 309 342 304 218 270 288 281 268 251 254 261 234 214 237 228 223 228 217 215 217 216 217 212 210
297 304 310 313 310 302 303 316 313 314 329 7 72 126 145 140 131 120 55 273 287 291 259 218 193 194 195 198 175 158 171 201 199 247 177 151 144 161 161 155 151 171 226 192 168 194 237 241 175 115 127 138 139 147 141 155 256 244 198 195 238 257 233 236 286 329 316 304 313 315 297 279 237 237 261 269 240 258 243 231 238 226 223 226 222 223 217 212
289 293 304 313 311 303 306 318 313 322 347 86 114 123 136 152 155 130 42 8 286 296 288 230 212 202 178 127 151 163 143 221 214 221 180 160 154 143 165 169 161 205 208 158 150 230 259 230 138 124 127 143 155 190 190 176 218 292 231 207 223 243 244 261 325 349 347 326 341 11 325 289 233 205 266 285 260 261 242 226 239 230 221 225 227 227 219 215
285 289 303 308 308 308 309 311 311 349 339 166 145 131 141 162 176 163 70 42 282 277 279 212 192 179 169 129 155 153 112 273 257 164 155 173 177 145 145 169 80 206 176 138 155 231 262 70 105 143 152 148 169 224 230 169 145 291 247 199 205 211 219 266 346 8 302 261 299 53 311 273 276 152 252 269 265 269 258 234 239 233 219 220 227 227 216 212
281 290 304 305 307 314 310 286 301 314 292 177 155 156 162 164 178 188 47 16 280 236 158 241 281 156 174 180 149 142 173 266 5 82 122 156 210 93 157 203 139 203 181 128 210 240 160 101 70 112 123 141 181 234 224 157 133 240 223 135 134 138 161 188 118 103 241 271 299 180 163 273 279 218 237 271 286 282 275 259 247 232 222 223 227 226 216 211
273 280 298 302 306 312 297 295 308 311 152 146 145 166 163 161 179 122 66 287 273 177 132 263 103 125 148 40 70 113 222 290 107 230 327 85 209 70 196 223 175 187 189 139 216 261 131 158 177 144 121 175 204 224 191 158 153 237 190 123 114 126 146 147 125 199 269 3 296 220 150 269 273 241 262 322 290 270 271 268 259 235 222 226 229 226 218 214
262 267 289 294 299 299 290 291 295 293 153 142 135 162 162 165 168 71 88 238 270 46 79 74 129 114 47 76 37 48 343 348 129 260 338 63 355 70 177 215 146 152 188 140 223 263 91 195 190 149 155 209 212 232 181 166 188 197 137 104 72 78 83 88 114 140 49 334 268 220 164 235 272 221 176 40 239 247 258 265 266 251 227 223 228 225 218 215
254 260 285 282 282 286 288 282 266 257 177 165 153 147 149 146 112 102 208 237 264 266 97 111 182 165 104 125 265 309 236 269 283 353 12 70 10 33 133 174 96 113 348 354 274 262 337 316 179 151 183 190 140 84 99 131 144 129 106 69 37 41 50 51 65 74 54 277 271 223 179 196 278 241 183 193 209 213 226 251 270 269 248 228 225 221 213 212
270 273 270 263 265 272 291 296 256 207 182 175 159 142 127 68 88 168 221 243 265 245 148 187 213 131 139 161 208 196 165 267 260 129 129 173 30 36 81 154 84 76 353 325 288 302 341 343 225 230 162 127 97 76 42 47 90 104 86 62 19 340 13 19 357 43 70 256 278 251 183 189 244 248 212 232 242 217 204 231 258 265 261 237 220 218 212 210
281 277 260 252 258 263 268 266 144 137 187 165 157 121 95 131 215 190 228 281 274 215 173 189 207 168 175 178 202 181 167 228 209 161 162 157 163 180 195 190 161 86 310 250 267 333 300 229 234 268 171 137 111 84 19 1 50 96 94 84 53 328 354 344 313 67 227 249 257 163 166 216 246 245 231 242 254 241 217 218 243 261 265 248 221 219 215 205
270 270 258 248 248 255 261 257 250 263 181 161 153 64 84 207 231 185 196 235 229 215 144 122 113 146 146 138 234 198 159 221 194 165 168 136 172 230 246 216 173 171 251 214 261 336 291 289 153 169 257 175 154 161 204 251 153 149 148 135 143 127 48 278 275 282 270 271 256 161 155 256 272 258 225 225 234 236 231 225 235 253 262 255 233 218 215 207
257 253 253 250 245 246 251 252 247 241 206 171 114 72 130 227 235 181 203 222 235 347 42 91 79 89 142 185 236 199 178 232 172 147 180 129 162 237 240 225 196 148 122 143 185 191 248 286 214 178 238 183 180 193 165 142 148 173 157 139 159 158 165 221 232 248 275 291 268 208 191 228 261 274 220 218 232 239 244 250 252 259 261 256 247 222 215 212
253 241 252 257 246 236 236 241 240 243 241 183 113 138 208 221 203 183 213 215 226 348 27 33 82 98 238 263 272 230 207 238 138 130 183 177 186 212 200 200 192 156 130 165 225 169 219 266 249 195 281 166 183 214 107 113 133 200 129 120 185 186 169 203 213 195 258 320 278 212 223 226 224 278 248 226 245 243 243 260 264 264 257 237 242 233 220 214
249 241 251 250 232 222 223 231 233 239 240 157 143 209 223 213 175 185 200 176 180 154 117 4 82 130 252 272 266 250 217 228 153 143 207 211 216 213 195 207 191 178 177 177 196 173 210 273 290 32 343 148 170 216 108 135 180 167 141 178 215 184 134 143 268 31 66 303 270 220 254 273 299 284 246 201 233 245 244 251 252 255 250 221 235 234 221 214
238 234 237 236 221 210 213 220 219 225 229 150 196 221 215 203 189 181 175 157 157 134 134 209 204 179 220 237 226 211 180 206 179 170 211 221 233 200 192 239 197 189 199 192 199 214 196 268 294 105 224 281 183 168 42 24 132 132 183 212 190 123 92 107 247 341 39 259 274 279 267 277 283 279 286 127 217 246 247 244 250 254 239 225 240 238 223 214
229 227 231 236 233 218 207 208 200 191 126 167 227 236 209 196 205 178 159 149 132 134 155 209 215 185 193 209 224 191 172 191 181 180 205 214 246 188 165 214 206 196 206 192 204 249 149 251 290 103 197 282 23 95 172 344 86 130 206 225 118 140 169 114 158 238 241 237 273 283 282 276 255 243 268 207 211 231 240 242 250 249 231 229 241 239 223 208
217 225 254 236 231 222 203 191 182 164 147 200 227 241 211 202 231 201 178 166 139 153 184 219 220 195 183 184 193 183 182 192 174 181 207 196 236 205 165 201 206 198 206 175 186 229 116 202 262 253 226 257 51 174 191 199 92 78 293 318 27 158 177 165 158 179 183 204 265 290 297 279 245 186 217 228 208 211 223 233 243 239 228 225 234 235 218 205
190 215 276 211 212 206 188 174 167 166 206 215 224 233 189 204 241 228 209 197 181 177 198 216 211 213 211 188 193 192 190 198 176 186 223 198 224 236 202 202 168 146 152 119 173 201 98 196 235 281 330 235 189 211 198 185 172 156 190 219 245 169 114 213 224 142 141 184 240 277 281 275 260 146 197 221 201 205 209 221 240 234 224 226 228 228 215 207
160 216 248 185 189 183 167 161 184 187 212 235 239 239 197 199 219 230 229 217 220 227 160 174 194 207 203 190 207 188 169 199 190 191 234 215 216 240 212 188 153 138 112 74 181 206 147 188 213 193 244 219 209 244 210 184 170 175 195 196 194 172 120 208 249 216 155 190 208 173 259 273 270 133 195 212 195 212 204 218 241 229 216 227 227 224 216 208
171 213 191 169 176 169 158 176 211 188 220 237 239 244 236 222 213 227 228 208 221 255 188 194 209 208 200 186 191 181 172 200 202 200 235 223 213 227 208 169 150 148 146 139 197 199 125 125 222 232 232 223 235 335 156 170 132 195 218 191 179 165 151 196 231 224 173 209 206 105 267 271 263 137 173 194 198 225 213 217 240 227 216 228 228 225 220 212
199 194 129 164 172 166 161 213 215 207 233 242 276 279 257 244 235 224 213 199 203 214 221 235 210 207 225 196 166 188 193 206 204 194 221 236 224 223 188 153 149 149 146 147 169 143 106 134 221 254 275 333 356 1 71 69 69 232 237 178 170 196 197 207 219 183 157 203 170 95 256 262 267 106 150 204 224 257 244 220 225 226 228 232 230 227 218 212
196 178 97 169 175 173 175 205 205 213 224 233 253 252 255 257 224 217 209 205 203 193 214 233 208 210 235 192 183 207 197 207 222 202 208 231 240 222 170 157 160 168 179 189 175 170 186 175 179 247 284 307 310 340 4 341 199 221 234 182 194 219 216 214 63 138 230 198 153 148 248 253 266 77 114 163 293 269 262 235 217 229 237 231 231 229 215 205
166 169 100 177 184 189 203 207 194 206 215 222 234 238 247 264 235 216 213 215 214 182 217 241 208 201 214 181 210 229 205 216 236 221 215 227 259 283 178 175 181 188 198 193 152 161 183 179 176 212 237 246 250 244 222 224 198 213 232 200 208 216 208 212 223 199 228 201 156 199 244 256 276 276 249 238 263 260 261 247 228 237 243 236 232 224 210 203
162 179 153 172 193 210 235 240 196 199 210 213 225 231 229 238 252 223 204 215 220 191 216 252 200 193 204 191 220 236 227 228 233 233 234 223 247 297 204 193 202 200 183 133 145 152 157 189 204 218 226 233 246 246 186 133 150 202 217 214 215 213 206 215 235 221 223 217 199 229 245 264 277 271 266 263 262 267 272 265 250 241 241 235 231 222 210 204
184 206 179 165 179 210 228 234 214 207 197 192 201 211 216 225 244 236 196 202 202 194 218 245 204 201 209 202 214 231 230 229 233 241 243 227 234 294 341 205 234 241 33 126 168 151 125 225 223 225 231 237 249 249 184 145 196 210 210 220 220 212 204 206 227 234 226 221 236 243 246 256 262 264 269 271 267 271 276 275 262 239 238 231 223 218 206 202
193 218 189 178 182 192 206 214 207 205 203 195 204 220 220 222 226 220 202 188 184 191 207 231 219 220 221 209 209 229 232 231 237 240 240 232 222 249 333 59 242 244 61 329 248 172 174 235 232 228 237 242 250 249 189 170 230 226 216 230 222 205 206 208 225 234 226 219 245 250 246 248 254 261 266 267 267 267 273 278 269 233 235 227 215 211 205 203
200 260 203 190 203 198 200 207 203 201 206 204 212 229 232 233 230 217 166 135 212 201 202 221 227 223 223 218 212 223 227 229 237 235 228 227 223 211 218 247 259 77 153 215 268 206 186 241 239 235 246 248 249 247 201 191 241 248 244 245 226 190 207 219 228 234 229 229 245 253 255 257 259 260 261 266 272 274 277 283 280 259 244 223 212 215 212 206
200 219 194 194 216 209 205 207 196 198 208 205 213 227 230 237 238 229 174 184 214 207 199 223 234 226 215 216 217 227 230 228 237 241 219 213 223 206 200 224 218 34 219 213 235 227 213 234 236 232 248 252 250 245 208 205 232 244 254 256 240 199 217 233 236 234 231 238 246 254 263 264 261 260 264 271 276 278 279 276 274 270 257 227 218 223 216 207
218 207 166 179 217 206 201 199 187 197 210 202 213 225 227 233 235 232 220 207 216 216 196 214 234 236 213 212 219 230 235 233 240 251 237 201 210 210 208 213 195 187 218 213 200 207 211 229 244 171 231 251 254 237 194 198 225 246 253 255 245 223 228 241 242 228 220 233 247 256 259 258 260 267 275 272 267 268 269 268 269 268 249 221 220 225 216 210
226 213 159 191 221 199 196 203 193 198 209 203 211 219 220 228 231 230 235 226 221 224 211 205 224 231 218 222 226 230 238 242 248 259 264 258 245 243 248 232 206 193 190 190 191 186 191 212 209 179 228 252 255 155 145 140 155 252 248 245 241 236 237 244 251 242 227 225 236 245 248 253 262 277 275 270 268 265 261 262 263 259 242 222 221 223 217 212
Height
826 825 824 823 822 821 820 819 818 817 816 815 814 813 811 810 809 808 807 806 804 803 802 802 801 801 801 800 800 799 799 798 798 797 796 797 797 796 795 794 794 793 792 791 790 790 790 790 790 790 790 793 797 798 797 799 801 801 808 813 812 820 819 813 817 818 811 806 809 814 813 812 818 825 826 827 829 831 832 834 835 834 833 833 832 832 834 836
826 825 824 823 822 821 820 819 818 817 817 815 814 813 812 811 809 809 807 806 805 803 802 801 801 800 800 800 800 800 799 798 798 797 797 797 796 796 795 794 793 792 792 790 790 789 789 791 790 790 792 795 799 798 798 800 801 805 813 814 812 816 813 809 811 812 810 805 807 813 814 812 812 819 824 823 828 833 830 834 837 836 835 834 833 833 834 836
826 825 825 823 822 821 820 819 818 818 816 815 814 813 812 811 810 809 807 807 805 804 802 801 801 800 800 800 799 800 799 798 798 798 797 797 796 796 795 794 793 792 791 790 790 789 789 790 790 791 793 796 801 800 799 800 802 808 812 810 810 811 809 811 810 809 809 806 807 811 814 815 814 818 821 820 828 832 827 827 832 832 833 833 833 833 833 835
827 826 825 824 823 822 820 820 818 817 816 815 814 813 812 810 809 808 807 806 805 804 802 801 800 799 799 798 799 800 798 800 800 797 796 797 796 796 795 794 794 792 791 791 790 790 789 790 790 791 793 798 802 802 803 803 803 808 810 808 810 811 808 808 809 809 811 811 809 811 814 816 817 820 820 820 825 828 824 819 818 821 826 830 831 832 832 833
827 826 825 824 823 822 821 820 818 817 816 815 814 813 812 810 809 808 807 806 804 803 802 801 799 799 799 798 799 798 799 806 802 795 796 797 796 796 795 794 793 792 791 790 790 790 789 790 791 793 795 798 802 801 805 807 805 807 809 812 813 813 808 805 809 810 813 814 811 812 812 812 818 820 820 818 813 814 816 814 815 818 821 824 827 829 831 833
827 826 825 824 823 822 821 820 819 817 816 815 814 813 811 810 809 807 806 805 804 803 801 800 799 799 798 797 799 797 802 807 799 794 796 796 795 796 794 794 793 792 791 790 790 790 790 792 792 796 799 801 806 804 805 808 806 805 809 814 815 814 808 806 809 809 812 812 810 811 810 814 818 815 819 818 807 808 813 814 816 819 822 822 824 828 829 831
827 826 825 824 823 822 821 820 818 817 816 815 813 812 811 809 808 807 805 804 803 801 801 800 799 799 798 798 798 798 802 801 794 795 796 795 795 795 794 794 793 792 792 790 790 790 793 794 795 800 801 803 807 806 806 807 805 805 808 810 813 815 810 809 810 810 812 809 810 813 811 814 814 812 819 816 808 813 815 813 815 818 822 824 825 827 828 829
827 826 825 824 823 822 821 820 818 817 815 814 813 811 810 809 807 806 805 803 802 801 800 799 799 798 798 798 798 801 802 797 793 794 794 794 795 794 794 794 793 793 792 791 791 791 794 796 799 802 802 803 805 805 806 805 805 807 808 809 812 813 810 811 812 811 811 811 815 816 812 814 815 816 817 810 809 815 815 814 816 818 822 824 824 826 827 828
826 826 825 824 823 822 820 819 818 816 815 813 812 811 809 808 807 805 804 803 801 800 799 799 798 797 798 798 799 803 799 793 793 793 793 794 794 794 794 793 793 793 792 792 792 791 793 797 800 800 800 804 805 805 805 804 806 808 809 809 809 809 809 811 810 809 811 813 816 813 812 816 819 819 811 806 812 816 816 816 818 819 821 823 824 824 825 826
826 825 824 823 822 821 820 819 817 815 814 813 811 810 809 807 806 804 803 802 801 799 799 798 798 797 798 797 801 804 796 791 793 792 793 793 793 794 793 793 793 793 793 793 793 792 793 796 798 798 799 803 805 807 808 805 806 809 810 809 809 810 810 811 807 809 813 813 814 811 813 817 821 820 805 805 816 816 817 819 819 820 820 822 822 823 824 824
826 825 824 823 822 821 819 818 816 815 813 812 810 809 807 806 804 803 802 801 800 799 798 798 797 798 797 797 802 802 793 791 793 792 793 792 793 793 793 793 793 793 793 794 794 793 794 794 796 798 799 801 804 807 808 806 807 809 809 808 810 811 811 813 809 811 814 812 813 812 814 819 823 817 801 804 816 815 816 819 820 820 820 821 822 822 823 823
825 824 823 822 821 820 819 817 815 814 812 811 810 808 807 805 803 802 801 800 799 798 798 797 797 797 797 798 799 796 791 792 792 792 793 792 793 793 793 793 793 793 793 794 795 794 795 795 795 797 800 801 804 806 807 808 809 809 809 806 807 806 808 814 812 812 814 809 811 814 813 814 815 807 800 808 815 815 818 818 820 821 820 821 821 822 822 822
824 823 822 821 820 819 818 816 815 813 812 810 808 807 806 803 802 801 799 798 797 797 797 797 797 796 798 799 795 791 791 792 792 792 792 792 793 793 793 793 793 794 793 794 795 795 796 795 795 798 800 802 804 806 805 809 809 808 811 810 808 805 805 812 814 813 813 809 809 813 810 803 800 799 804 813 814 816 819 818 820 820 820 821 820 821 821 821
823 822 821 820 819 818 817 816 814 813 811 809 807 806 805 802 801 799 798 797 796 797 796 796 797 796 799 797 791 790 791 791 792 792 792 792 793 793 794 794 794 794 794 795 795 796 796 796 796 797 801 804 805 805 807 810 810 810 812 815 820 814 806 808 814 812 810 811 810 812 813 800 790 795 807 814 813 813 815 816 819 818 819 819 819 819 818 818
821 821 820 819 818 817 816 815 814 812 810 808 806 805 804 801 799 797 797 796 795 796 795 796 796 797 800 796 790 790 790 790 791 791 792 792 792 793 794 794 794 795 795 795 796 797 797 797 797 799 804 805 805 806 808 810 812 816 812 813 824 821 810 807 811 812 806 810 813 811 811 801 790 795 807 813 813 813 812 813 816 816 817 816 816 817 816 815
820 820 819 818 818 817 816 814 813 811 809 808 806 804 802 800 798 796 796 795 795 795 795 796 796 797 801 796 790 790 790 791 791 791 792 792 792 793 794 794 795 795 796 796 797 797 797 798 802 806 805 805 808 807 810 814 814 821 820 813 818 819 817 811 808 813 809 807 812 809 806 798 790 797 810 813 813 813 811 813 814 813 814 814 814 814 814 814
819 819 818 817 817 816 815 814 812 810 808 807 805 802 801 799 796 795 795 795 795 794 795 796 795 797 797 792 790 790 790 790 790 791 791 792 793 792 793 794 795 796 796 796 796 797 797 800 806 808 807 811 814 809 814 819 814 819 824 820 819 820 821 814 806 811 812 809 809 808 808 798 788 796 810 812 811 813 811 809 810 810 810 811 812 812 811 811
819 818 817 816 815 815 814 813 812 810 808 806 804 802 799 797 796 796 795 795 795 795 796 795 796 801 797 790 791 791 790 790 790 791 791 792 792 793 793 794 796 796 797 798 798 798 799 803 807 806 808 813 813 811 816 819 813 815 820 818 821 823 822 819 811 810 812 810 809 809 808 799 788 792 804 810 810 810 806 804 805 806 808 809 810 809 808 808
818 817 816 815 814 814 813 812 811 809 807 805 804 801 798 796 796 795 795 795 796 796 797 796 795 799 796 791 791 790 790 790 791 791 791 792 792 793 793 794 796 796 799 801 798 801 803 804 807 807 807 807 806 808 809 809 810 813 817 818 820 821 820 817 812 810 812 811 808 808 806 798 789 786 794 804 808 806 802 802 802 803 806 808 807 806 806 804
817 816 815 814 813 812 812 811 810 809 807 805 803 800 799 800 800 798 796 795 795 794 793 793 792 792 791 790 791 790 790 790 790 791 791 792 792 793 794 795 797 798 801 802 801 807 809 806 807 805 801 800 802 807 808 810 815 816 818 821 822 823 819 812 810 813 816 813 804 801 804 800 791 783 785 797 805 804 802 801 799 800 802 802 803 802 801 800
817 815 814 813 812 812 811 810 810 809 808 806 804 803 804 807 807 805 802 795 791 792 791 791 791 790 789 790 790 789 790 790 790 791 791 792 793 794 795 796 799 801 805 807 806 809 811 808 804 798 798 802 807 813 814 814 817 817 818 820 821 825 819 809 812 817 817 816 805 800 803 798 791 783 779 790 798 794 795 795 791 792 796 797 797 797 797 798
816 814 813 812 811 810 810 809 809 808 808 807 805 805 807 809 808 809 809 801 793 791 791 791 791 790 789 789 789 789 790 791 790 790 790 792 793 794 796 798 800 802 807 810 807 809 812 806 797 799 807 811 815 818 814 813 817 818 821 823 820 822 819 810 815 820 819 817 806 802 804 794 788 783 775 781 786 781 782 783 780 783 788 790 791 791 793 796
815 814 813 812 810 810 809 809 808 807 807 807 806 807 808 808 808 809 810 808 798 789 789 789 788 788 788 788 788 789 790 791 791 789 789 791 793 795 795 798 801 802 806 806 804 809 809 801 801 809 812 807 811 818 814 813 817 817 820 822 816 817 818 810 813 819 818 816 811 808 802 786 781 779 769 772 775 772 775 775 775 778 780 781 782 783 786 788
814 814 813 811 810 809 808 808 807 807 807 806 807 807 807 808 809 809 808 808 801 790 787 788 787 787 786 786 785 787 790 791 790 788 788 789 792 796 794 796 801 803 804 803 804 806 800 801 812 814 809 804 807 814 814 811 814 815 818 819 813 812 815 812 816 820 815 814 817 809 785 766 772 775 765 770 775 771 771 773 773 775 775 776 778 778 779 780
813 813 812 811 811 808 809 808 806 807 806 806 807 806 808 807 807 809 808 809 803 792 787 786 786 785 782 784 785 786 789 789 787 787 788 788 790 794 795 797 799 799 802 805 809 805 798 806 814 807 806 808 806 809 811 809 812 813 811 811 809 807 812 816 820 819 811 809 816 813 787 764 769 774 764 765 770 767 767 770 768 769 773 775 773 772 773 777
812 812 811 811 810 808 809 807 806 807 805 806 807 806 808 807 808 809 808 814 809 791 784 784 784 782 780 783 786 786 788 787 786 787 787 788 788 789 793 798 798 798 802 805 807 802 800 811 813 803 805 808 806 808 809 810 814 813 809 812 813 813 816 818 818 817 812 811 817 820 808 783 768 764 759 757 760 759 759 762 762 764 768 769 766 764 768 772
811 811 811 810 809 808 808 807 806 806 805 806 805 806 807 806 809 807 808 820 809 782 779 785 784 780 780 784 785 784 785 785 786 787 787 787 787 787 790 795 798 799 802 804 802 799 800 808 810 805 805 807 806 804 806 811 810 809 814 817 814 815 817 817 818 818 818 821 821 818 819 805 780 765 759 756 760 758 753 753 755 759 761 761 759 759 762 765
810 811 810 810 809 808 808 807 806 805 805 805 805 807 806 806 809 806 814 825 801 772 774 782 781 780 781 785 786 785 786 785 785 787 788 788 787 788 790 791 793 794 800 800 795 795 799 799 801 802 804 805 802 798 804 807 803 807 820 822 817 818 819 820 821 821 826 829 816 812 822 811 780 765 766 767 766 756 742 737 740 746 753 753 753 754 757 759
809 809 809 810 808 808 808 807 806 805 805 805 805 806 805 807 807 807 824 825 789 768 775 778 779 782 783 787 787 787 788 787 786 786 788 788 787 788 791 793 793 794 799 800 792 793 799 802 802 800 797 797 798 807 812 805 800 813 825 823 822 825 825 827 824 819 828 823 801 802 816 803 768 754 764 770 765 750 735 730 731 735 743 746 747 749 752 755
808 808 809 809 808 808 807 806 806 805 805 805 805 806 805 807 808 817 833 817 781 774 779 778 780 782 784 787 788 789 789 787 788 788 789 789 788 789 793 796 795 795 799 801 796 796 804 810 809 801 796 797 803 817 823 815 813 819 820 814 815 823 828 833 831 824 821 802 785 794 804 798 774 753 753 753 742 733 727 728 730 729 732 738 743 745 747 750
807 807 808 808 808 807 806 806 805 805 806 805 805 806 806 809 817 826 823 797 778 779 778 779 783 783 783 784 783 788 789 787 788 788 788 790 790 791 794 794 795 799 801 799 796 799 803 804 803 800 802 805 804 812 821 824 823 817 811 808 809 814 820 825 826 825 812 786 785 805 809 803 781 750 743 740 729 727 726 723 721 720 724 730 737 741 742 745
806 806 806 807 807 806 806 806 805 805 805 805 806 805 807 816 820 817 804 785 778 777 772 777 784 783 785 784 781 786 789 785 787 787 787 791 792 791 790 787 789 794 797 797 796 796 794 795 799 800 803 804 796 802 816 820 819 814 810 813 815 815 815 810 809 812 803 787 797 816 811 797 770 738 736 737 726 725 727 724 719 717 720 724 732 737 738 742
804 804 805 805 805 805 806 805 805 806 804 805 806 805 812 820 811 799 794 781 773 774 773 777 784 785 786 784 782 786 787 784 786 787 787 792 793 790 788 787 788 785 786 798 801 793 785 790 800 796 794 797 791 793 802 806 812 813 809 810 812 816 815 806 805 807 796 786 801 816 804 780 751 727 726 726 717 716 719 722 722 720 722 724 729 734 736 739
802 803 803 803 803 804 804 805 805 805 805 805 805 808 818 817 798 788 787 776 771 777 779 780 785 787 785 782 781 783 782 780 785 787 787 792 794 790 785 787 791 785 786 797 798 793 787 782 786 786 785 790 789 787 789 795 808 812 807 807 804 802 800 793 792 791 782 782 800 812 792 758 731 716 716 717 715 715 716 720 724 723 728 730 730 733 735 736
801 801 801 801 802 802 803 805 804 804 806 803 804 811 810 797 788 785 780 774 774 777 781 784 785 784 784 784 784 783 776 775 784 788 787 789 787 782 777 778 787 786 785 792 791 796 795 779 779 792 793 792 791 792 795 793 800 811 813 808 800 792 787 787 793 798 800 799 798 796 772 739 723 716 716 720 717 714 718 723 724 722 726 732 731 730 732 733
799 799 800 798 798 799 802 804 803 805 805 802 806 806 788 773 776 776 770 768 769 771 778 784 783 782 783 781 781 782 777 776 784 785 786 788 783 779 776 770 776 779 774 779 783 787 786 777 787 800 796 798 799 797 799 791 788 806 811 799 798 800 789 786 799 814 822 806 779 770 755 730 722 715 711 719 716 713 720 722 719 719 724 730 728 726 728 730
797 797 797 795 795 798 800 801 803 805 805 803 800 786 769 764 765 763 762 764 766 767 772 775 774 774 774 773 774 777 776 778 784 781 780 784 774 769 773 766 767 769 759 761 770 772 772 770 786 798 789 798 811 802 799 799 794 801 800 792 797 804 796 794 800 805 813 804 775 760 750 729 721 715 709 716 716 711 717 717 714 718 723 726 723 721 725 727
794 794 793 791 793 795 797 800 803 803 806 804 791 772 763 763 759 756 758 761 762 764 766 767 765 764 766 766 767 773 775 774 779 779 774 775 764 755 762 759 758 762 754 754 762 767 771 769 782 805 800 797 809 800 792 800 802 797 795 795 794 791 792 800 805 796 797 802 778 754 746 725 707 707 704 705 708 704 707 709 709 713 718 720 718 718 722 725
793 793 789 784 787 791 795 799 800 804 806 799 784 771 763 759 756 756 754 753 756 760 762 759 756 758 763 762 761 768 772 768 774 776 766 765 760 751 753 749 749 760 758 757 761 763 771 768 772 801 810 798 798 795 784 789 802 802 799 800 795 789 789 793 800 794 786 790 775 757 746 709 680 691 695 692 699 699 699 700 699 703 710 714 713 714 719 722
790 792 786 779 783 787 792 797 799 803 800 784 770 766 762 759 756 753 750 750 751 752 754 754 754 757 759 762 761 760 764 766 770 770 761 757 755 749 748 744 746 761 764 762 764 763 771 771 766 789 812 800 784 780 770 768 784 794 793 796 795 795 797 793 795 794 785 783 778 773 755 697 664 681 684 682 693 693 693 695 690 695 703 708 710 710 713 718
787 789 781 776 781 784 790 796 795 795 790 774 763 762 761 757 753 750 750 752 751 748 750 751 752 751 751 757 761 758 761 765 765 765 758 753 749 741 740 739 742 756 764 765 766 762 766 771 765 776 792 783 767 772 775 767 770 776 775 778 779 784 793 790 787 789 786 781 770 772 760 700 665 679 680 680 689 685 688 690 684 692 698 701 707 707 708 712
782 782 775 774 780 782 786 789 785 785 783 771 762 760 759 755 752 752 751 753 754 751 751 750 747 747 747 749 753 755 756 757 760 761 754 748 744 734 732 736 740 746 750 757 761 759 762 768 766 762 763 767 772 782 787 779 773 773 772 771 771 775 779 774 771 773 780 781 771 776 770 707 662 675 680 679 685 683 686 688 685 692 696 697 703 704 705 709
772 773 772 773 776 778 784 785 780 779 775 765 760 760 758 756 755 754 751 752 754 752 751 748 743 745 746 746 749 751 751 749 751 752 749 744 738 730 730 736 740 741 743 749 756 759 761 764 765 758 752 765 780 783 784 781 776 771 769 772 772 766 761 760 763 766 768 772 772 785 776 709 662 675 683 681 688 689 690 693 692 692 693 697 702 701 704 707
763 767 770 773 774 776 777 772 767 768 768 765 764 762 759 756 753 752 751 749 748 748 746 742 741 742 743 744 744 744 746 745 742 743 742 736 732 730 731 734 736 737 735 737 740 748 755 757 762 764 758 759 766 770 774 777 776 767 760 766 768 759 759 764 770 774 766 755 762 775 752 693 664 681 688 685 690 688 686 693 695 692 690 695 699 700 703 705
760 763 766 769 770 770 765 755 751 755 759 762 764 762 761 758 750 747 749 746 744 745 743 740 741 741 739 742 743 741 743 740 736 737 735 731 731 734 734 733 731 729 728 729 730 736 743 747 751 757 757 753 744 741 749 758 767 767 758 759 761 758 761 759 759 769 762 747 754 752 716 678 669 676 680 684 686 684 683 689 695 695 693 694 696 698 701 703
754 756 761 767 768 765 758 753 753 753 752 757 761 759 758 755 746 742 745 745 743 745 744 741 741 740 739 743 743 741 741 738 736 734 731 730 730 733 738 737 731 728 729 730 732 734 738 740 738 735 735 733 722 719 733 744 749 752 748 746 749 752 756 755 754 757 751 746 747 726 699 694 686 669 669 678 679 678 677 678 684 689 691 693 694 695 698 701
746 744 746 754 759 761 757 754 755 754 751 753 752 746 744 745 743 741 742 740 739 741 742 739 739 739 738 738 740 737 735 737 738 732 727 729 730 733 742 744 738 736 736 734 733 733 735 733 729 725 723 719 710 713 730 735 729 733 737 735 738 745 751 757 754 738 731 741 736 709 702 710 690 665 667 674 672 672 670 667 673 679 682 686 689 692 696 699
737 732 730 732 736 742 744 740 742 747 749 748 742 735 736 739 740 739 738 739 739 738 739 737 734 732 729 729 734 735 734 736 735 727 723 727 730 732 737 740 742 744 742 741 739 734 731 725 718 720 723 718 711 715 727 728 720 723 728 725 729 740 746 751 742 720 718 731 717 694 697 699 678 664 668 667 664 667 665 662 668 673 677 681 685 689 693 695
730 728 727 726 721 722 723 722 729 739 743 744 741 736 733 730 728 728 732 737 738 734 733 730 723 722 725 728 731 733 732 728 721 717 719 723 724 727 730 731 739 748 747 743 742 739 732 721 714 717 720 716 713 715 724 730 725 723 723 717 721 734 738 734 722 709 716 722 703 687 692 686 665 658 661 658 658 662 662 661 664 668 672 677 680 683 686 689
719 718 719 721 718 716 717 720 727 734 735 739 741 733 727 724 720 721 725 727 728 729 729 723 715 716 723 727 729 726 717 709 707 707 713 719 721 725 728 722 727 746 752 743 740 741 733 718 712 717 719 713 708 711 721 726 724 724 719 707 711 727 727 715 707 709 720 718 700 696 701 682 653 647 657 660 658 661 661 659 659 660 664 671 675 677 680 684
708 707 710 715 716 713 714 717 722 726 728 732 731 724 722 720 714 714 718 715 713 717 720 718 716 718 722 724 724 716 703 701 706 707 709 716 718 718 720 717 718 734 747 744 738 738 735 724 716 721 723 710 702 710 719 722 729 732 718 698 700 711 707 696 695 702 709 706 701 708 703 671 642 646 659 660 657 659 658 654 653 655 659 665 668 669 672 676
707 707 708 712 711 708 710 713 716 718 716 715 714 711 712 711 707 712 718 712 705 706 709 712 714 717 722 722 713 703 699 703 709 709 709 714 716 714 715 717 716 721 733 742 739 736 736 728 720 724 723 710 708 718 720 726 735 725 696 679 684 691 690 688 688 687 688 693 698 696 673 643 639 654 659 652 651 653 650 647 648 650 654 658 660 661 665 667